Regional Weather Roundup
Issued by NWS

Home | Current Version | Previous Version | Text Only | Print | Product List | Glossary On
Versions: 1 2 3 4 5 6 7 8 9 10 11 12 13 14 15 16 17 18 19 20 21 22 23 24 25 26 27 28 29 30 31 32 33 34 35 36 37 38 39 40 41 42 43 44 45 46 47 48 49 50
833
ASUS44 KFWD 131703
RWRTX
NORTH TEXAS HOURLY WEATHER ROUNDUP
NATIONAL WEATHER SERVICE FORT WORTH TX
1100 AM CST WED DEC 13 2017

NOTE: "FAIR" INDICATES FEW OR NO CLOUDS BELOW 12,000 FEET WITH NO
SIGNIFICANT WEATHER AND/OR OBSTRUCTIONS TO VISIBILITY.

TXZ118-119-131800-
DALLAS/FORT WORTH METROPLEX

CITY           SKY/WX    TMP DP  RH WIND       PRES   REMARKS
DFW AIRPORT    MOSUNNY   61  24  24 SW12      30.03F
DALLAS LOVE    MOSUNNY   57  27  31 SW8       30.04F
FTW MEACHAM    SUNNY     66  22  18 SW12      30.03F
DAL-EXECUTIVE  SUNNY     62  23  22 W13G20    30.04F
FTW-ALLIANCE   MOSUNNY   64  22  20 SW10      30.03F
FTW-NAS-JRB    MOSUNNY   60  17  18 SW12      30.04F
FTW-SPINKS     SUNNY     64  23  20 SW10      30.06F
ARLINGTON      SUNNY     62  24  23 S7        30.04F
GRAND PRAIRIE  SUNNY     61  27  27 S7        30.06F
ADDISON        SUNNY     55  23  28 SW7G14    30.05F
MESQUITE       SUNNY     55  27  33 S7        30.07F
LANCASTER      SUNNY     60  25  25 SW8       30.07F
$$

TXZ091>094-102>105-117-120-121-131>134-131800-
NORTH CENTRAL TEXAS

CITY           SKY/WX    TMP DP  RH WIND       PRES   REMARKS
SHRMAN/DENISON SUNNY     60  24  25 SW17      30.00F
GAINESVILLE    SUNNY     63  21  20 W17       30.01F
BOWIE          SUNNY     63  22  20 SW15G21   30.00F
BRIDGEPORT     SUNNY     60  23  24 SW8       30.04F
DECATUR        SUNNY     60  23  23 SW14      30.00F
DENTON         SUNNY     62  23  22 W14       30.02F
MCKINNEY       SUNNY     59  25  27 SW14      30.03F
BONHAM         SUNNY     58  26  30 SW16G23   30.01F
ROCKWALL       SUNNY     55  29  37 SW13      30.06S
TERRELL        SUNNY     59  25  27 SW13      30.06F
WAXAHACHIE     SUNNY     60  28  30 SW8       30.07F
CLEBURNE       SUNNY     61  27  27 SW8G14    30.07F
GRANBURY       SUNNY     67  24  19 SW13      30.06F
$$

TXZ083>090-098>101-113>116-127>130-139>142-154-155-131800-
WESTERN NORTH TEXAS

CITY           SKY/WX    TMP DP  RH WIND       PRES   REMARKS
WICHITA FALLS  SUNNY     58  18  21 W10       29.99S
WF-KICKAPOO    SUNNY     59  20  21 W12G20    30.02F
VERNON         SUNNY     59   3  10 W9        30.01S
ABILENE        SUNNY     60  24  25 SW13      30.06F
ABILENE-DYESS  SUNNY     64  23  21 SW15      30.06F
GRAHAM           N/A     59  25  27 SW10      30.03F
BRECKENRIDGE   SUNNY     65  20  17 SW12G20   30.05F
CISCO          SUNNY     63  19  19 SW15G25   30.08S
EASTLAND       SUNNY     63  21  20 SW17      30.07S
RANGER         SUNNY     60  24  25 SW13      30.07S
MINERAL WELLS  SUNNY     63  20  19 SW10      30.03F
STEPHENVILLE   SUNNY     63  21  20 W10       30.10F
COMANCHE       SUNNY     62  25  25 W14G22    30.09F
BROWNWOOD      SUNNY     57  21  24 SW8       30.11F
COLEMAN          N/A     60  23  24 SW17      30.10
$$

TXZ143>147-156>162-174-175-131800-
CENTRAL TEXAS

CITY           SKY/WX    TMP DP  RH WIND       PRES   REMARKS
WACO           SUNNY     56  27  32 SW13      30.10F
WACO-TSTC      SUNNY     59  30  33 S9        30.11F
WACO-MCGREGOR  SUNNY     56  33  42 S10       30.11F
HILLSBORO      SUNNY     55  29  37 S9        30.08F
CORSICANA      SUNNY     59  29  31 S13       30.11F
MEXIA          SUNNY     55  29  37 S15       30.11F
HEARNE         CLOUDY    51  35  54 S7        30.16F
CAMERON        CLOUDY    51  33  49 S12G21    30.15F
TEMPLE         MOSUNNY   51  34  52 S14       30.13F
KILLEEN        CLOUDY    53  29  40 SW10      30.10F
KILLEEN-SKYLRK CLOUDY    54  31  41 SW10      30.12F
FORT HOOD      CLOUDY    53  30  40 SW13      30.08F
GATESVILLE     CLOUDY    54  27  35 SW9       30.12F
HAMILTON       SUNNY     63  23  21 W17       30.10F
LAMPASAS       CLOUDY    56  25  30 W10       30.10F
$$

TXZ095>097-106>112-122>126-135>138-148>153-164>167-131800-
EAST TEXAS

CITY           SKY/WX    TMP DP  RH WIND       PRES   REMARKS
PARIS          SUNNY     57  30  35 SW14      30.01F
SULPHUR SPRNGS SUNNY     58  29  32 SW13      30.06F
MOUNT PLEASANT SUNNY     58  29  33 SW13G20   30.07F
GILMER         SUNNY     55  30  38 S14       30.08F
MINEOLA        SUNNY     55  28  35 S12G17    30.07F
TYLER          SUNNY     54  29  38 SW13      30.10F
LONGVIEW       SUNNY     55  31  39 S15       30.10F
MARSHALL       SUNNY     55  28  35 S10G17    30.11F
ATHENS         SUNNY     54  28  37 S7G16     30.09F
PALESTINE      SUNNY     52  32  47 S8        30.15F
JACKSONVILLE   SUNNY     52  30  43 SW10G16   30.14F
HENDERSON      SUNNY     55  30  38 S9        30.13F
CENTER         SUNNY     53  24  32 S9G18     30.14F
NACOGDOCHES    SUNNY     52  29  41 SW13      30.17S
LUFKIN         MOSUNNY   52  33  48 SW9       30.17S
$$

SUPPLEMENTAL OBSERVATIONS (NWS FORT WORTH AREA)

CITY           SKY/WX    TMP DP  RH WIND       PRES   REMARKS
$$

SUPPLEMENTAL OBSERVATIONS (NWS NORMAN AREA)

CITY           SKY/WX    TMP DP  RH WIND       PRES   REMARKS
GOODLETT         N/A     59  12  15 NW12      30.02S
ODELL            N/A     57  14  18 NW12      30.02S
CROWELL          N/A     60  15  17 W9        30.02R
KNOX CITY        N/A     58  18  20 SW18      30.04F
SEYMOUR          N/A     58  19  21 SW18      30.01F
$$

SUPPLEMENTAL OBSERVATIONS (NWS SAN ANGELO AREA)

CITY           SKY/WX    TMP DP  RH WIND       PRES   REMARKS
WEINERT          N/A     58  22  25 W17       30.05S
HASKELL          N/A     56  21  25 SW16      30.06S
THROCKMORTON     N/A     56  28  33 W22       30.05S
STAMFORD         N/A     57  24  28 W13       30.07F
CLYDE            N/A     59  23  25 SW17      30.08F
$$

SUPPLEMENTAL OBSERVATIONS (NWS SHREVEPORT AREA)

CITY           SKY/WX    TMP DP  RH WIND       PRES   REMARKS
$$

SUPPLEMENTAL OBSERVATIONS ARE A COLLECTION OF AUTOMATED INSTRUMENTS
THAT ARE MAINTAINED BY A VARIETY OF FEDERAL AND STATE AGENCIES.
CERTAIN ELEMENTS...SUCH AS HUMIDITY VALUES AND SUSTAINED WIND
SPEEDS...MAY BE APPROXIMATED.





USA.gov is the U.S. government's official web portal to all federal, state and local government web resources and services.